Terminal Aerodrome Forecast
Issued by NWS Goodland, KS

Home | Current Version | Previous Version | Text Only | Print | Product List | Glossary On
Versions: 1 2 3 4 5 6 7 8 9 10 11 12 13 14 15
000
FTUS43 KGLD 230423 AAB
TAFGLD
TAF AMD
KGLD 230423Z 2304/2324 VRB06KT P6SM -SHRA VCTS SCT040CB BKN100
      TEMPO 2304/2306 36012KT -TSRA OVC040CB
     FM230700 17009KT P6SM SCT100
     FM231000 VRB05KT 6SM BR SCT005 BKN010
     FM231400 VRB06KT P6SM FEW250
     FM231800 30009KT P6SM FEW100=

USA.gov is the U.S. government's official web portal to all federal, state and local government web resources and services.